星链-3885 (STARLINK-3885 )

导读

STARLINK-3885是美国SpaceX公司星链(Starlink)星座中的一颗低轨通信卫星,于2022年5月6日发射升空。星链计划旨在为全球偏远地区提供低延迟高速宽带互联网服务。该卫星采用平板设计,配备太阳能电池阵与氪工质霍尔推进器,具备自主避撞能力,寿命终结后会主动离轨再入大气层烧毁,服务年限约5至7年。

基本信息
目录编号:
52463
目录名称:
STARLINK-3885
国际标识:
2022-049N
轨道中心:
EARTH
卫星名称:
星链-3885
卫星全名:
星链-3885 (STARLINK-3885 )
卫星状态:
在轨 (已飞行1503 天)
发射日期:
2022-05-06 UTC
国别 :
美国 (US)
星等 :
--
轨道信息
数据来源 国际轨道数据 AOE轨道数据
星历时间 2026-06-17T11:53:35+0800
11小时前
查看轨道信息
2026-06-11T11:00:00+0800
6天前
查看轨道信息
半长轴 6917.956km 6917.913km
偏心率 0.0001275 0.0002106
轨道倾角 53.160° 53.161°
近地点辐角 95.520° 79.589°
升交点赤经 322.474° 349.611°
平近点角 264.593° 229.724°
近地点 538.936km 538.319km
远地点 540.702km 541.233km
周期 95.439分钟 95.438分钟
每日圈数 15.088153 15.088294
详细信息
固有亮度:
5
最大亮度:
2.5
卫星平台:
Starlink v1.5
覆盖范围:
全球
运营商:
太空探索技术公司
运营商所在国:
美国
制造商(研发单位):
太空探索技术公司
制造商所在国:
美国
使用方式:
暂无
卫星简介
星链(Starlink)计划是由太空探索技术公司(SpaceX)提出的一个巨型低轨卫星互联网星座项目,计划在2019年至2024年间在太空搭建由约1.2万颗卫星组成的“星链”网络,其中1584颗将部署在地球上空550千米处的近地轨道,并从2020年开始工作。该卫星仍在工作。
2D轨道图
3D轨道图
轨道高度分析图
轨道倾角分析图
轨道综合分析图
查看轨道综合分析图